Temperature
8 8 8 8 8 8 8 8 8 7 7 8 8 8 7 7 7 7 7 7 7 7 7 7 7 6 6 6 6 6 6 5 5 5 5 5 5 5
8 8 8 8 8 8 8 8 8 8 7 7 7 7 7 7 7 7 7 7 7 7 7 6 6 6 6 6 6 6 5 5 5 5 5 5 5 4
8 8 8 8 8 7 7 7 7 7 7 7 7 7 6 6 6 6 6 6 6 6 6 6 6 6 6 5 5 5 5 5 5 5 4 4 4 4
7 7 7 7 7 7 7 7 7 7 7 7 7 6 6 6 6 6 6 6 6 6 6 6 5 5 5 5 5 5 5 5 4 4 4 4 4 4
7 7 7 7 7 7 7 7 7 6 6 6 6 6 6 6 6 6 6 5 5 5 5 5 5 5 5 5 4 4 4 4 4 4 4 3 3 3
6 6 6 6 6 6 6 6 6 6 6 6 6 6 5 5 5 5 5 5 5 5 5 4 4 4 4 4 4 4 4 4 3 3 3 3 3 3
6 6 6 6 6 6 6 6 5 5 5 5 5 5 5 5 5 5 5 4 4 4 4 4 4 4 4 3 3 3 3 3 3 2 2 2 2 2
5 5 5 5 5 5 5 5 5 5 5 5 5 5 5 5 5 4 4 4 4 4 3 3 3 3 3 3 3 3 3 2 2 2 2 2 1 1
5 5 5 5 4 5 5 5 5 5 4 4 4 4 4 4 4 4 3 3 3 3 3 3 3 3 3 2 2 2 2 2 2 1 1 1 1 1
4 4 4 4 4 4 4 4 4 4 4 4 4 4 4 4 3 3 3 3 2 2 2 2 2 2 2 2 2 2 1 1 1 1 1 0 0 0
3 3 3 3 3 3 3 3 4 4 3 3 3 3 3 3 3 2 2 2 2 2 2 2 2 2 2 2 1 1 1 1 0 0 0 -0 -0 -0
2 3 3 3 3 3 3 3 3 3 3 3 3 2 2 2 2 2 2 2 1 1 1 1 1 1 1 1 1 1 0 0 -0 -0 -0 -1 -1 -1
2 2 2 2 2 2 2 2 2 2 2 2 2 2 2 2 1 1 1 1 1 1 1 0 0 -0 -0 -0 0 -0 -0 -0 -1 -1 -1 -1 -1 -1
1 1 1 1 1 1 1 1 1 1 1 1 1 1 1 1 1 1 1 0 0 -0 -0 -1 -1 -1 -1 -1 -1 -1 -1 -1 -2 -2 -2 -2 -2 -2
0 0 0 0 0 0 1 1 0 0 0 0 0 0 0 0 0 -0 -0 -0 -1 -1 -1 -1 -1 -2 -2 -2 -2 -2 -2 -2 -2 -2 -2 -2 -2 -3
-1 -1 -0 -0 -0 -0 -0 -0 -0 -0 -0 -0 -0 -0 -0 -1 -1 -1 -1 -1 -1 -1 -1 -2 -2 -2 -2 -2 -3 -2 -3 -3 -3 -3 -3 -3 -3 -3
-1 -1 -1 -1 -1 -1 -1 -1 -1 -1 -1 -1 -1 -1 -1 -1 -1 -1 -2 -2 -2 -2 -2 -2 -3 -3 -3 -3 -3 -3 -3 -3 -3 -4 -4 -3 -3 -3
-2 -2 -2 -2 -2 -2 -2 -1 -1 -1 -1 -1 -1 -2 -2 -2 -2 -2 -2 -3 -3 -3 -3 -3 -3 -3 -3 -3 -3 -4 -4 -4 -4 -4 -4 -4 -4 -4
-3 -3 -3 -3 -3 -2 -2 -2 -2 -2 -2 -2 -2 -2 -2 -3 -3 -3 -3 -3 -3 -4 -4 -4 -4 -4 -4 -4 -4 -4 -5 -5 -5 -5 -5 -5 -5 -4
-3 -3 -3 -3 -3 -3 -3 -3 -3 -3 -3 -3 -3 -3 -3 -3 -3 -3 -4 -4 -4 -4 -4 -4 -5 -5 -5 -5 -5 -5 -5 -5 -5 -5 -5 -5 -5 -5
-4 -4 -4 -4 -4 -4 -3 -3 -3 -3 -3 -3 -4 -4 -4 -4 -4 -4 -4 -4 -5 -5 -5 -5 -5 -5 -6 -6 -6 -5 -5 -6 -6 -6 -6 -6 -6 -6
-5 -5 -5 -5 -4 -4 -4 -4 -4 -4 -4 -4 -4 -4 -4 -5 -5 -5 -5 -5 -5 -5 -5 -6 -6 -6 -6 -6 -6 -6 -6 -5 -6 -6 -6 -6 -7 -7
-6 -5 -5 -5 -5 -5 -5 -5 -5 -5 -5 -5 -5 -5 -5 -5 -5 -5 -5 -6 -6 -6 -6 -6 -6 -6 -6 -6 -6 -6 -6 -6 -6 -6 -6 -6 -7 -7
Wind_Speed
6 6 4 3 3 3 4 4 5 4 4 3 2 2 4 4 4 4 4 4 4 4 4 3 3 3 3 4 4 5 4 4 5 5 6 7 8 9
5 6 5 3 3 3 4 3 3 4 4 4 3 2 2 2 3 3 4 4 4 4 4 4 4 4 4 4 4 4 4 5 5 6 7 7 8 9
5 6 6 5 4 3 3 3 3 3 3 2 1 1 1 1 2 2 3 4 4 4 5 5 5 5 4 4 4 4 5 5 6 6 7 8 9 9
6 6 6 5 5 4 4 4 3 3 4 4 2 1 2 2 2 2 3 4 4 4 5 5 5 5 4 4 4 4 5 5 6 6 7 7 8 9
6 7 6 6 6 4 4 4 3 3 3 3 2 1 1 1 1 1 2 2 4 4 4 5 5 5 5 5 5 5 5 5 6 7 7 8 9 9
5 6 6 7 7 6 5 5 4 4 3 3 2 1 1 1 1 2 2 2 2 3 4 4 4 5 5 5 5 5 5 6 7 7 7 8 9 10
5 5 5 6 6 6 5 6 5 4 4 3 3 2 2 2 3 2 2 2 2 2 2 3 3 3 4 5 5 6 6 7 7 8 8 9 9 10
5 5 5 6 6 7 7 8 8 7 6 4 3 4 4 4 3 2 2 1 3 1 1 2 2 2 4 5 6 6 6 6 7 7 8 9 10 11
5 5 4 4 5 4 5 6 6 7 8 6 6 6 5 5 4 3 3 3 3 2 1 3 1 3 5 6 7 7 7 7 7 8 9 10 10 11
4 5 5 5 5 5 4 4 3 4 5 5 5 5 5 5 6 5 4 2 1 1 1 2 2 3 4 6 7 7 6 7 8 8 9 9 10 11
3 4 5 5 7 7 6 5 4 3 3 5 5 4 5 5 5 3 3 2 2 2 1 2 2 2 2 3 5 6 6 7 8 8 9 10 10 10
3 4 5 6 7 7 7 6 6 4 3 2 2 2 2 4 5 4 4 3 2 3 2 2 1 1 2 2 3 4 5 7 8 9 10 11 10 8
3 3 3 5 6 6 6 6 7 5 4 4 2 1 1 1 2 2 3 3 3 3 2 2 1 1 2 3 3 3 4 4 6 8 9 10 10 8
4 3 3 5 5 5 5 5 5 5 3 3 3 2 2 2 1 1 2 1 2 3 4 3 2 3 2 3 4 3 3 4 5 6 7 9 9 10
3 4 4 5 5 4 5 5 5 4 4 4 4 3 2 2 2 1 1 1 1 0 2 3 2 2 3 4 4 3 3 3 4 4 5 6 7 7
2 3 4 4 4 4 3 3 3 4 4 4 3 2 2 2 2 1 1 1 0 1 1 2 3 3 3 4 4 5 4 3 3 4 5 6 8 8
2 2 2 3 3 3 2 2 3 3 3 3 3 3 3 3 2 2 1 1 1 2 2 2 2 2 4 4 4 5 4 4 4 4 5 6 6 8
2 3 3 3 4 4 4 3 3 3 3 3 3 3 3 3 3 2 1 2 2 2 2 2 1 2 2 3 6 5 4 4 4 4 4 5 7 6
2 3 3 3 3 3 3 3 3 3 3 3 3 3 3 3 3 3 3 2 2 2 2 2 1 1 2 5 4 5 4 4 4 5 4 5 7 8
1 2 2 3 3 3 3 3 3 3 3 3 3 3 3 3 3 3 3 3 3 2 2 2 3 3 4 5 4 4 7 5 5 5 5 5 7 10
1 1 1 2 2 2 2 2 3 3 3 3 3 3 3 3 3 3 3 4 3 3 4 4 4 4 2 2 4 5 4 8 8 6 5 5 6 6
1 1 1 1 2 2 2 2 2 2 3 3 3 3 3 3 3 4 4 4 3 3 4 3 2 2 2 3 5 6 6 5 8 11 10 9 5 5
1 1 1 1 1 2 2 2 3 3 3 3 3 3 3 3 3 4 4 4 3 3 3 3 2 2 3 4 5 6 7 6 5 5 6 10 13 16
Wind_Direction
193 191 190 188 182 176 163 162 164 192 226 236 237 237 215 209 214 215 226 238 248 255 259 264 265 270 278 281 281 277 282 290 290 293 298 302 306 305
192 190 195 189 184 182 176 174 168 175 206 217 224 240 217 216 221 220 233 241 245 251 253 256 260 266 269 274 278 278 284 290 292 293 297 300 302 303
195 194 198 186 184 185 177 171 173 167 198 227 229 230 204 218 247 243 247 242 246 250 250 254 252 255 255 258 268 276 283 288 293 297 297 299 301 302
201 197 201 190 190 187 181 182 186 181 183 207 219 211 224 217 223 241 263 252 249 254 253 252 247 242 249 257 266 274 280 287 291 293 297 301 303 304
198 198 202 194 197 194 190 192 195 193 185 188 207 206 232 212 215 273 281 275 269 257 253 248 243 247 252 257 264 269 272 277 283 288 292 294 298 300
199 200 199 199 200 194 196 199 192 190 182 176 191 200 215 211 178 225 268 272 278 269 260 256 252 255 258 261 265 268 271 277 284 287 290 293 297 298
200 202 203 203 199 195 199 197 189 192 185 181 192 200 207 196 213 211 237 265 274 263 264 265 259 261 265 266 266 267 270 277 281 284 289 293 296 298
204 206 205 205 207 204 201 195 191 190 191 192 206 213 221 214 208 206 205 233 270 256 221 267 244 254 260 259 264 266 270 276 281 286 291 294 296 297
202 203 210 209 203 196 199 199 203 201 195 193 204 216 210 205 197 209 214 221 240 239 217 269 271 261 261 265 266 265 270 276 282 287 291 293 294 296
207 202 203 207 202 189 189 194 204 208 207 201 204 211 209 203 201 205 206 209 261 258 184 248 268 265 276 271 268 268 270 278 284 290 293 295 297 296
209 202 200 206 202 188 185 191 202 216 204 193 197 198 198 196 183 155 164 183 242 247 205 217 257 279 282 272 270 271 275 283 288 291 294 297 298 298
215 211 207 206 201 192 191 191 202 208 177 162 154 166 172 175 174 175 179 193 219 241 219 186 222 278 289 275 273 277 279 286 289 292 295 295 296 300
211 211 211 203 202 201 200 202 206 192 177 171 169 160 142 158 175 182 182 191 208 230 205 176 207 220 241 279 285 270 269 285 294 295 294 293 293 294
213 210 205 201 208 210 207 199 183 168 165 169 177 189 194 199 196 184 186 198 215 226 212 197 208 216 236 263 273 282 279 278 280 288 292 293 294 293
221 207 203 201 204 205 199 185 172 167 170 181 194 205 207 193 159 127 71 76 50 346 220 226 215 226 230 243 259 268 286 281 271 277 286 285 285 288
210 196 196 198 195 189 188 185 180 181 184 192 195 192 174 174 185 190 201 184 300 307 328 263 228 222 241 250 250 263 261 264 280 282 286 284 284 277
194 180 184 186 189 188 184 185 179 175 182 183 182 186 192 194 203 190 191 191 227 254 284 319 327 285 253 243 255 258 263 268 268 279 287 289 282 276
193 191 199 200 200 199 197 197 191 188 185 182 183 190 198 198 196 193 196 198 225 241 246 259 303 332 325 283 239 248 257 264 273 276 270 280 286 283
201 200 206 206 206 202 199 197 199 192 183 181 185 191 196 197 196 197 197 211 233 237 241 235 238 233 277 283 280 235 245 269 279 280 269 265 276 284
197 204 211 205 206 206 200 195 189 177 175 179 180 185 193 198 202 205 204 211 227 239 249 242 228 221 233 254 270 274 257 256 264 274 281 283 279 283
221 210 215 212 212 210 199 189 184 185 179 177 183 189 194 195 205 211 215 222 231 235 244 250 249 255 263 274 280 277 270 263 260 263 275 288 293 293
250 234 226 226 217 209 196 186 181 185 185 187 191 193 196 201 207 210 216 220 227 235 249 259 257 253 241 248 266 277 286 291 289 279 267 259 259 267
303 297 260 240 231 211 200 193 190 194 195 197 202 204 202 211 216 215 218 223 228 233 245 259 261 256 255 253 262 274 280 289 295 297 285 278 270 271
Height
1530 1532 1534 1536 1538 1540 1542 1543 1545 1544 1545 1546 1548 1549 1550 1550 1551 1551 1552 1552 1552 1552 1552 1552 1552 1551 1551 1551 1550 1550 1549 1548 1547 1546 1545 1544 1542 1541
1526 1528 1530 1532 1534 1536 1537 1539 1540 1541 1541 1542 1544 1545 1546 1547 1547 1548 1548 1549 1549 1549 1548 1548 1548 1548 1548 1547 1547 1546 1545 1544 1543 1542 1541 1540 1539 1537
1521 1523 1525 1527 1529 1531 1533 1534 1535 1537 1537 1538 1540 1541 1542 1543 1543 1544 1545 1545 1545 1545 1545 1545 1544 1544 1544 1544 1543 1542 1542 1541 1540 1538 1537 1536 1535 1534
1516 1518 1520 1523 1525 1526 1528 1529 1531 1532 1533 1534 1535 1536 1537 1538 1539 1540 1540 1540 1541 1541 1541 1541 1540 1540 1540 1540 1539 1538 1537 1536 1535 1534 1533 1532 1531 1529
1511 1513 1515 1517 1519 1521 1523 1524 1526 1528 1529 1529 1530 1531 1533 1534 1535 1535 1536 1536 1536 1537 1536 1536 1536 1536 1536 1535 1535 1534 1533 1532 1531 1530 1529 1527 1526 1525
1505 1508 1510 1512 1514 1516 1518 1520 1521 1523 1524 1524 1525 1526 1528 1529 1530 1531 1531 1532 1532 1532 1532 1532 1532 1532 1531 1531 1530 1529 1528 1527 1526 1525 1524 1523 1521 1520
1500 1502 1505 1507 1509 1511 1513 1515 1516 1517 1518 1519 1520 1522 1523 1524 1525 1526 1526 1526 1527 1527 1527 1528 1528 1527 1527 1526 1525 1525 1524 1523 1522 1520 1519 1518 1517 1515
1495 1497 1499 1501 1504 1506 1508 1510 1511 1512 1513 1514 1516 1517 1518 1519 1520 1521 1521 1522 1522 1523 1523 1523 1523 1522 1522 1521 1521 1520 1519 1518 1517 1515 1514 1513 1511 1510
1490 1492 1494 1496 1498 1501 1503 1505 1506 1508 1509 1511 1511 1512 1513 1515 1516 1516 1516 1517 1517 1518 1518 1517 1518 1517 1517 1516 1516 1515 1514 1513 1511 1510 1509 1507 1506 1504
1484 1486 1488 1490 1493 1495 1497 1499 1501 1502 1504 1505 1507 1508 1509 1510 1511 1512 1512 1513 1513 1513 1514 1513 1513 1512 1512 1511 1511 1510 1509 1508 1506 1505 1504 1502 1500 1499
1479 1481 1483 1485 1487 1490 1492 1494 1495 1497 1499 1501 1502 1503 1504 1506 1506 1507 1507 1508 1507 1508 1509 1508 1507 1507 1506 1506 1505 1505 1504 1503 1501 1500 1498 1497 1495 1493
1474 1476 1478 1480 1482 1484 1486 1488 1490 1492 1494 1495 1497 1498 1499 1500 1501 1502 1503 1503 1503 1503 1503 1503 1502 1502 1500 1500 1500 1499 1498 1497 1496 1494 1493 1491 1489 1487
1469 1471 1473 1475 1477 1479 1481 1483 1485 1487 1489 1490 1491 1492 1494 1495 1496 1497 1498 1499 1498 1498 1498 1498 1497 1497 1496 1494 1494 1493 1493 1491 1490 1489 1487 1486 1484 1482
1464 1466 1468 1470 1472 1475 1476 1478 1480 1482 1484 1485 1486 1487 1488 1490 1491 1492 1493 1493 1493 1493 1493 1493 1492 1492 1491 1489 1488 1487 1487 1486 1484 1483 1481 1480 1478 1476
1460 1461 1464 1466 1468 1470 1472 1473 1475 1477 1478 1479 1480 1482 1484 1485 1486 1486 1487 1487 1487 1488 1488 1488 1487 1487 1486 1484 1482 1481 1480 1480 1479 1477 1475 1474 1472 1470
1455 1457 1459 1461 1463 1465 1467 1468 1470 1472 1473 1474 1476 1477 1479 1480 1480 1481 1481 1482 1482 1482 1483 1483 1482 1482 1480 1479 1478 1476 1475 1474 1473 1472 1470 1468 1467 1464
1451 1453 1454 1456 1458 1460 1462 1464 1465 1467 1469 1470 1471 1472 1474 1475 1475 1476 1476 1477 1477 1477 1477 1478 1477 1477 1475 1474 1473 1472 1470 1469 1468 1466 1464 1461 1460 1459
1447 1448 1450 1452 1453 1455 1457 1459 1461 1462 1464 1466 1467 1468 1469 1470 1470 1471 1471 1472 1472 1472 1472 1472 1472 1471 1470 1469 1469 1467 1465 1464 1462 1461 1458 1455 1453 1452
1443 1444 1446 1448 1449 1451 1453 1454 1456 1458 1459 1461 1462 1463 1464 1465 1465 1466 1466 1467 1467 1467 1467 1467 1467 1466 1465 1463 1463 1463 1461 1458 1457 1455 1453 1450 1447 1445
1439 1440 1442 1444 1445 1447 1449 1450 1452 1453 1455 1456 1457 1458 1459 1460 1460 1461 1461 1462 1462 1462 1462 1462 1462 1461 1461 1460 1457 1456 1456 1454 1451 1449 1447 1444 1442 1440
1435 1437 1438 1440 1442 1443 1445 1446 1447 1449 1450 1451 1452 1453 1454 1455 1455 1456 1457 1457 1458 1457 1457 1457 1457 1457 1456 1455 1453 1450 1450 1449 1447 1444 1441 1439 1435 1433
1432 1433 1435 1437 1438 1439 1441 1442 1443 1444 1445 1446 1447 1448 1449 1450 1450 1451 1452 1452 1452 1452 1452 1452 1452 1452 1451 1450 1447 1445 1444 1443 1442 1440 1438 1435 1432 1427
1429 1430 1431 1433 1434 1436 1437 1438 1439 1439 1440 1441 1442 1443 1444 1445 1446 1446 1447 1447 1447 1447 1447 1447 1447 1446 1445 1445 1443 1441 1439 1437 1435 1433 1432 1430 1428 1425